Location: Jackson Park
(37.2862°N, 79.9123°W)
Time: 11:09:08
(UTC+00:00)

Vanguard 3 - Pass Details

Date: 16 May 2026
Orbit: 507 x 3204 km, 33.3° (Epoch: 11 June)

Event Time Altitude Azimuth Distance (km) Brightness Sun altitude
Rises 15:02:17 0° 188° (S) 5,555 11.5 55.7°
Reaches altitude 10° 15:07:04 10° 172° (S) 4,991 11.6 56.6°
Maximum altitude 15:17:07 21° 131° (SE) 4,817 12.0 58.4°
Drops below altitude 10° 15:29:05 10° 92° (E) 6,099 12.2 60.5°
Sets 15:35:47 0° 79° (E) 7,143 12.2 61.6°
